This demonstration page uses our WeatherBlox Daily Observations layout. Learn more.

Hourly Observations for October 26, 2020

Temp ( °F °C ) Dew Point ( °F °C ) Humidity (%) Winds ( mph kmh ) Pressure ( in mb ) Visibility ( mi km ) Precip ( " mm )
12:53 am 00:53 Clear 7 -13.9 5 -15 91 91 Calm 30.58 1036 10 16.0934 0 0
1:53 am 01:53 Mostly Cloudy 7 -13.9 5 -15 91 91 Calm 30.59 1036 10 16.0934 0 0
2:53 am 02:53 Cloudy 8 -13.3 5 -15 87 87 S 3 6 30.56 1035 10 16.0934 0 0
3:53 am 03:53 Cloudy 8 -13.3 5 -15 87 87 Calm 30.55 1035 10 16.0934 0 0
4:53 am 04:53 Cloudy 8 -13.3 5 -15 87 87 Calm 30.55 1034 10 16.0934 0 0
5:30 am 05:30 Cloudy with Mist and Fog 9 -13 5 -15 85 85 N 3 6 30.68 1039 5 8.0467 0 0
5:53 am 05:53 Cloudy 8 -13.3 5 -15 87 87 Calm 30.54 1034 10 16.0934 0 0
6:53 am 06:53 Cloudy 7 -13.9 4 -15.6 87 87 Calm 30.55 1034 10 16.0934 0 0
7:53 am 07:53 Cloudy 8 -13.3 5 -15 87 87 Calm 30.54 1034 9 14.48406 0 0
8:53 am 08:53 Cloudy 9 -12.8 6 -14.4 88 88 SSE 3 6 30.55 1034 10 16.0934 0 0
9:53 am 09:53 Cloudy 10 -12.2 7 -13.9 87 87 SE 5 7 30.53 1034 9 14.48406 0 0
10:53 am 10:53 Partly Cloudy 14 -10 7 -13.9 73 73 Calm 30.5 1033 10 16.0934 0 0
11:53 am 11:53 Mostly Sunny 16 -8.9 6 -14.4 65 65 Calm 30.48 1032 10 16.0934 0 0
12:53 pm 12:53 Mostly Sunny 20 -6.7 8 -13.3 60 60 Calm 30.44 1031 10 16.0934 0 0
1:53 pm 13:53 Sunny 20 -6.7 7 -13.9 57 57 W 5 7 30.42 1030 10 16.0934 0 0
2:53 pm 14:53 Sunny 21 -6.1 7 -13.9 54 54 WNW 6 9 30.38 1029 10 16.0934 0 0
3:53 pm 15:53 Sunny 24 -4.4 7 -13.9 48 48 Calm 30.37 1029 10 16.0934 0 0
4:53 pm 16:53 Sunny 18 -7.8 7 -13.9 62 62 E 3 6 30.38 1029 10 16.0934 0 0
5:53 pm 17:53 Sunny 16 -8.9 7 -13.9 67 67 ESE 3 6 30.39 1029 10 16.0934 0 0
6:53 pm 18:53 Clear 9 -12.8 4 -15.6 80 80 E 6 9 30.41 1030 10 16.0934 0 0
7:53 pm 19:53 Clear 1 -17.2 -3 -19.4 83 83 NE 5 7 30.44 1031 10 16.0934 0 0
8:53 pm 20:53 Clear 4 -15.6 1 -17.2 88 88 Calm 30.44 1031 10 16.0934 0 0
9:53 pm 21:53 Clear -3 -19.4 -7 -21.7 82 82 NNW 6 9 30.46 1032 10 16.0934 0 0
10:53 pm 22:53 Clear -7 -21.7 -10 -23.3 87 87 NW 10 17 30.47 1032 10 16.0934 0 0
11:53 pm 23:53 Clear -2 -18.9 -5 -20.6 87 87 NW 7 11 30.45 1031 10 16.0934 0 0

Powered by AerisWeather